Regional Weather Roundup
Issued by NWS

Home | Current Version | Previous Version | Text Only | Print | Product List | Glossary Off
Versions: 1 2 3 4 5 6 7 8 9 10 11 12 13 14 15 16 17 18 19 20 21 22 23 24 25 26 27 28 29 30 31 32 33 34 35 36 37 38 39 40 41 42 43 44 45 46 47 48 49 50

861
ASUS43 KFSD 270210
RWRSD

WEATHER ROUNDUP FOR SOUTH DAKOTA
NATIONAL WEATHER SERVICE SIOUX FALLS SD
900 PM CDT FRI MAY 26 2017

NOTE: "FAIR" INDICATES FEW OR NO CLOUDS BELOW 12,000 FEET WITH NO
SIGNIFICANT WEATHER AND/OR OBSTRUCTIONS TO VISIBILITY.


SDZ001>005-009-010-012>017-270300-
NORTHWEST AND NORTH CENTRAL SOUTH DAKOTA

CITY           SKY/WX    TMP DP  RH WIND       PRES   REMARKS
BUFFALO          N/A     60  41  49 NW6       29.85R
FAITH            N/A     61  39  44 NW5       29.90R
MOBRIDGE       CLOUDY    58  41  53 N3        29.84R
$$

SDZ012>016-024>037-041>051-057-063-072>074-270300-
SOUTHWEST AND SOUTH CENTRAL SOUTH DAKOTA

CITY           SKY/WX    TMP DP  RH WIND       PRES   REMARKS
RAPID CTY ARPT LGT RAIN  54  47  77 S8        29.94S
PIERRE         CLOUDY    65  38  36 W7        29.87R
CUSTER         CLOUDY    45  41  86 CALM      29.98R
ELLSWORTH AFB  CLOUDY    56  47  71 SW5       29.93S
PHILIP         CLOUDY    62  41  46 SW7       29.90S
PINE RIDGE     CLOUDY    53  49  86 N3        29.95R
SPEARFISH      FAIR      54  43  66 S9        29.95S
WINNER         FAIR      64  45  49 N5        29.90R
$$

SDZ004>011-016>023-039-040-270300-
NORTHEAST SOUTH DAKOTA

CITY           SKY/WX    TMP DP  RH WIND       PRES   REMARKS
ABERDEEN       CLOUDY    62  40  44 NW5       29.84R
WATERTOWN      PTCLDY    60  44  55 NW5       29.84R
BROOKINGS      CLEAR     61  45  55 MISG      29.85R
SISSETON         N/A     61  45  55 NW5       29.81R
$$

SDZ017-020-022-023-036>040-048>070-270300-
SOUTHEAST SOUTH DAKOTA

CITY           SKY/WX    TMP DP  RH WIND       PRES   REMARKS
SIOUX FALLS    PTCLDY    63  45  51 CALM      29.85R
HURON          CLOUDY    62  45  53 CALM      29.85R
CHAMBERLAIN    PTCLDY    64  45  49 CALM      29.89R
MITCHELL       CLEAR     63  44  50 NW5       29.87R
YANKTON        CLOUDY    68  44  42 W5        29.88R
$$

ABBREVIATIONS USED IN REMARKS
   TC - TEMPERATURE IN CELSIUS
  WCI - WIND CHILL INDEX
   HX - HEAT INDEX
  VSB - VISIBILITY





USA.gov is the U.S. government's official web portal to all federal, state and local government web resources and services.